Regional Weather Roundup
Issued by NWS

Home | Current Version | Previous Version | Graphics & Text | Print | Product List | Glossary On
Versions: 1 2 3 4 5 6 7 8 9 10 11 12 13 14 15 16 17 18 19 20 21 22 23 24 25 26 27 28 29 30 31 32 33 34 35 36 37 38 39 40 41 42 43 44 45 46 47 48 49 50
000
ASUS45 KSLC 280510
RWRUT

UTAH REGIONAL WEATHER ROUNDUP
NATIONAL WEATHER SERVICE SALT LAKE CITY UT
1100 PM MDT WED MAY 27 2015

UTZ001>011-023>025-280600-

NORTHERN UTAH

CITY           SKY/WX    TMP DP  RH WIND       PRES   REMARKS
BRIGHAM CITY   CLOUDY    56  49  76 CALM      30.10R
HILL AFB       CLOUDY    53  46  77 S13       30.11R
LOGAN          CLEAR     55  47  74 S10       30.09R
OGDEN          CLOUDY    53  47  79 SW7       30.10R
PROVO AIRPORT  CLOUDY    57  45  62 SW6       30.12R
SALT LAKE CITY CLOUDY    55  51  86 S8        30.10R
VERNAL         LGT RAIN  53  48  83 SE7       30.15R
WENDOVER       PTCLDY    55  48  76 N3        30.09R
HEBER CITY     CLOUDY    50  45  81 E5        30.15S
WEST JORDAN    CLEAR     54  52  94 SW6       30.12R

$$

UTZ012>022-026-027-280600-

SOUTHERN/CENTRAL UTAH

CITY           SKY/WX    TMP DP  RH WIND       PRES   REMARKS
BLANDING       PTCLDY    56  41  57 NW8       30.17R
BRYCE CANYON   PTCLDY    47  40  76 N14       30.26R
CEDAR CITY     MOCLDY    54  43  66 N12       30.17R
DELTA          MOCLDY    53  44  73 S10       30.13S
HANKSVILLE     PTCLDY    59  45  58 SE6       30.12R
MILFORD        LGT RAIN  52  48  86 E8        30.18R
MOAB/CYNLANDS  PTCLDY    62  43  49 NE3       30.09R
PRICE          CLOUDY    50  45  83 N6        30.16S
ST GEORGE      CLOUDY    72  43  35 NE15G29   29.99R
KANAB          CLEAR     61  32  33 N12G17    30.10R

$$

REGIONAL REPORTS     COLORADO/ARIZONA

CITY           SKY/WX    TMP DP  RH WIND       PRES   REMARKS
CRAIG, CO      CLOUDY    53  43  68 CALM      30.19R
GRAND JUNCTION LGT RAIN  57  49  74 E5        30.14R
RIFLE          CLOUDY    52  46  80 S13       30.18R
MONTROSE       MOCLDY    55  43  63 NW12      30.17R
CORTEZ         CLEAR     52  42  69 NE8       30.11R
PAGE, AZ       CLEAR     71  33  24 S5        29.99R
GRAND CANYON   CLEAR     48  36  63 CALM      30.19R
KINGMAN        CLEAR     67  12  12 S12       30.00R
FLAGSTAFF      PTCLDY    49  32  52 SW8       30.21R

$$

REGIONAL REPORTS    NEVADA/IDAHO/WYOMING

CITY           SKY/WX    TMP DP  RH WIND       PRES   REMARKS
LAS VEGAS, NV  PTCLDY    85  28  12 S12       29.83R
ELY            PTCLDY    49  43  80 S14       30.15R
ELKO           CLEAR     59  46  62 N3        30.05R
POCATELLO, ID  LGT RAIN  54  47  77 SW15G26   30.08F
BURLEY         MOCLDY    52  45  77 SW10      30.03S
EVANSTON, WY   LGT RAIN  43  40  89 S13       30.19F
ROCK SPRINGS   CLOUDY    48  42  80 S8        30.14S
KEMMERER       CLOUDY    45  39  81 CALM      30.18R

$$


USA.gov is the U.S. government's official web portal to all federal, state and local government web resources and services.